#timestamp,LO_Frequency,Hit,StdDev 
1562166015.6,286047001.2,N
1562166035.4,286047000.9,N
1562166055.2,286046998.1,N
1562166075.1,286046999.0,N
1562166076.0,286046999.0,N
1562166095.8,286046998.2,N
1562166115.6,286046999.2,N
1562166135.5,286046997.3,N
1562166155.3,286046996.9,N
1562166175.2,286046999.5,N
1562166195.9,286046995.3,Y
1562166215.7,286046996.5,P
1562166235.6,286046996.9,N
1562166255.4,286046997.3,N
1562166275.2,286046999.2,N
1562166295.1,286046997.1,N
1562166326.0,286046998.0,E
1562166335.0,286046996.6,N
1562166335.9,286046996.6,P
1562166355.8,286046998.2,P
1562166375.6,286046999.8,N
1562166395.4,286047000.3,N
1562166415.3,286046999.8,N
1562166435.1,286047000.5,N
1562166455.9,286047000.8,N
1562166475.7,286046999.1,N
1562166495.5,286046996.6,N
1562166515.4,286046999.6,N
1562166535.2,286046997.2,N
1562166555.0,286046997.2,N
1562166555.9,286046997.2,N
1562166575.8,286047001.1,N
1562166595.6,286047001.1,N
1562166615.5,286046999.0,N
1562166635.3,286046998.7,N
1562166655.1,286046998.9,N
1562166675.9,286046998.9,N
1562166695.7,286046999.5,N
1562166715.5,286046999.2,N
1562166735.4,286046997.1,N
1562166755.2,286046996.4,N
1562166775.0,286046995.8,N
1562166776.0,286046995.8,N
1562166795.8,286046997.7,N
1562166815.6,286046996.5,N
1562166835.5,286046998.1,N
1562166855.3,286047000.5,N
1562166875.1,286047001.1,N
1562166895.9,286046998.1,N
1562166915.7,286047000.7,N
1562166935.6,286047001.2,N
1562166955.4,286046999.4,N
1562166975.2,286046996.6,N
1562166995.1,286046996.6,N
1562166996.0,286046996.6,N
1562167015.8,286046999.6,N
1562167035.6,286046998.1,N
1562167055.5,286047000.4,N
1562167075.3,286047000.4,N
1562167095.2,286046998.1,N
1562167115.9,286046998.1,N
1562167135.7,286047000.5,N
1562167155.6,286047000.9,N
1562167175.4,286046998.7,N
1562167195.2,286046998.5,N
1562167215.1,286046996.5,N
1562167216.0,286046996.5,N
1562167235.8,286046996.7,N
1562167255.7,286046999.0,N
1562167275.5,286046997.1,N
1562167295.3,286046997.5,N
1562167315.2,286046996.6,N
1562167335.9,286046996.5,N
1562167355.7,286046997.9,N
1562167375.6,286046995.6,N
1562167395.4,286046997.2,N
1562167415.2,286046995.6,N
1562167435.1,286046997.7,N
1562167436.0,286046997.7,N
1562167455.8,286046998.9,N
1562167475.7,286047000.9,N
1562167495.5,286047001.0,N
1562167515.3,286046998.5,N
1562167535.2,286047001.0,N
1562167555.0,286046998.5,N
1562167555.9,286046998.5,N
1562167575.8,286046998.9,N
1562167595.6,286046999.0,N
1562167615.4,286046998.8,N
1562167635.3,286046998.8,N
1562167655.1,286046998.7,N
1562167656.0,286046998.7,N
1562167675.8,286047000.1,N
1562167695.7,286047000.4,N
1562167715.5,286047002.6,N
1562167735.3,286047002.0,N
1562167755.2,286047003.7,N
1562167775.0,286046999.8,N
1562167775.9,286046999.8,N
1562167795.8,286047001.9,N
1562167815.6,286047002.6,N
1562167835.4,286047002.0,N
1562167855.3,286047002.3,N
1562167875.1,286047002.7,N
1562167895.8,286047002.8,N
1562167915.7,286047002.0,N
1562167935.5,286047001.8,N
1562167955.3,286047001.4,N
1562167975.2,286047004.0,N
1562167995.0,286047004.3,N
1562167995.9,286047004.3,N
1562168015.8,286047004.2,N
1562168035.6,286047001.7,N
1562168055.4,286047001.9,N
1562168075.3,286047002.7,N
1562168095.1,286047002.8,N
1562168115.8,286047000.1,N
1562168135.7,286047001.4,N
1562168155.5,286046999.8,N
1562168175.4,286046998.3,N
1562168195.2,286046998.9,N
1562168215.0,286046998.2,N
1562168215.9,286046998.2,N
1562168235.8,286046998.8,N
1562168255.6,286046998.1,N
1562168275.4,286046998.7,N
1562168295.3,286046998.6,N
1562168315.1,286046996.8,N
1562168335.9,286046996.7,N
1562168355.7,286046996.5,N
1562168375.5,286046998.8,N
1562168395.4,286046998.3,N
1562168415.2,286046999.4,N
1562168435.0,286046999.2,N
1562168435.9,286046999.2,N
1562168455.8,286046998.8,N
1562168475.6,286046999.6,N
1562168495.4,286046999.2,N
1562168515.3,286046999.0,N
1562168535.1,286046997.0,N
1562168555.9,286047000.5,N
1562168575.7,286046999.7,N
1562168595.5,286047002.8,N
1562168615.4,286047002.7,N
1562168635.2,286047001.4,N
1562168655.0,286047002.2,N
1562168655.9,286047002.2,N
1562168675.8,286047002.6,N
1562168695.6,286047002.7,N
1562168715.5,286047002.7,N
1562168735.3,286047000.6,N
1562168755.1,286047001.2,N
1562168775.9,286046999.0,N
1562168795.7,286046998.3,N
1562168815.5,286047000.7,N
1562168835.4,286047002.8,N
1562168855.2,286047000.3,N
1562168875.1,286047001.2,N
1562168876.0,286047001.2,N
1562168895.8,286047000.0,N
1562168915.6,286047002.6,N
1562168935.5,286047001.4,N
1562168955.3,286047002.9,N
1562168975.2,286047003.0,N
1562168995.9,286047005.9,Y
1562169015.7,286047005.9,P
1562169035.6,286047005.9,N
1562169055.4,286047004.7,N
1562169075.2,286047006.0,N
1562169095.1,286047003.7,N
1562169096.0,286047003.7,N
1562169115.8,286047003.8,N
1562169135.7,286047004.2,N
1562169155.5,286047003.7,N
1562169175.3,286047003.6,N
1562169195.2,286047004.8,Y
1562169215.0,286047002.2,P
1562169215.9,286047002.2,N
1562169235.8,286047002.3,N
1562169255.6,286047004.4,Y
1562169275.4,286046999.3,P
1562169295.3,286046999.0,N
1562169315.1,286046996.5,N
1562169335.8,286046997.2,N
1562169355.7,286046997.9,N
1562169375.5,286046999.3,N
1562169395.4,286047001.1,N
1562169415.2,286047001.2,N
1562169435.0,286046999.8,N
1562169435.9,286046999.8,N
1562169455.8,286047001.3,N
1562169475.6,286047001.9,N
1562169495.4,286047000.3,N
1562169515.3,286047000.0,N
1562169535.1,286047002.6,N
1562169555.9,286047001.8,N
1562169575.7,286047002.0,N
1562169595.5,286047002.7,N
